{"data":{"norad_id":63703,"intl_designator":"2025-087G","name":"STARLINK-33868","alt_names":[],"object_type":"PAYLOAD","status":"ACTIVE","operator":null,"country":"US","launch_date":"2025-04-28","launch_site_code":"AFWTR","launch_vehicle":null,"mission":null,"orbit_class":"UNKNOWN","rcs_meters":null,"size_class":null,"mass_kg":null,"dimensions":null,"purposes":["comms"],"wikipedia_slug":null,"has_3d_model":false,"image_url":null,"decayed_at":null,"tle_current":{"epoch":"2026-09-20T15:25:49.962432Z","epoch_age_seconds":140218,"freshness":"FRESH","line1":"1 63703U 25087G   26263.64293938  .00030189  00000+0  90073-3 0  9996","line2":"2 63703  53.1589  32.8990 0001322  88.4319 271.6835 15.34410532 79066","mean_motion":15.34410532,"eccentricity":0.0001322,"inclination_deg":53.1589,"raan_deg":32.899,"arg_perigee_deg":88.4319,"mean_anomaly_deg":271.6835,"bstar":0.00090073,"rev_number":7906,"period_min":93.847113922182,"perigee_km":461.76758212116,"apogee_km":463.57629200412,"semimajor_km":6840.8089370626,"source":"CELESTRAK","updated_at":"2026-09-21T09:00:35.063214Z"}}}